Weather History for Pecos, TX

Change the Weather History Date:

Friday, October 25, 2013

  Actual Average Record
Temperature  
Mean Temperature 64 °F -  
Max Temperature 77 °F 78 °F 94 °F (1950)
Min Temperature 51 °F 44 °F 33 °F (1945)
Degree Days  
Heating Degree Days 1    
Growing Degree Days 14 (Base 50)    
Moisture  
Dew Point 46 °F    
Average Humidity 58    
Maximum Humidity 76    
Minimum Humidity 31    
Precipitation  
Precipitation 0.00 in - - ()
Sea Level Pressure  
Sea Level Pressure 30.19 in    
Wind  
Wind Speed 11 mph (East)    
Max Wind Speed 22 mph    
Max Gust Speed 26 mph    
Visibility 10 miles    
Events Thunderstorm    
Averages and records for this station are not official NWS values.
T = Trace of Precipitation, MM = Missing Value Source: NWS Daily Summary

Daily Weather History Graph

Daily Weather History Graph

Search for Another Location

Airport:

Trip Planner

Search our weather history database for the weather conditions in past years. The results will help you decide how hot, cold, wet, or windy it might be!

Date:

Astronomy

Oct. 25, 2013 Rise Set
Actual Time 8:04 AM CDT 7:11 PM CDT
Civil Twilight 7:39 AM CDT 7:35 PM CDT
Nautical Twilight 7:11 AM CDT 8:04 PM CDT
Astronomical Twilight 6:42 AM CDT 8:32 PM CDT
Moon No Moon Rise 1:40 PM CDT (10/25)
Length of Visible Light 11h 56m
Length of Day
11h 06m
Waning Gibbous, 62% of the Moon is Illuminated
Oct 25
Waning Gibbous
Oct 26
Last Quarter
Nov 3
New
Nov 9
First Quarter
Nov 17
Full

Hourly Weather History & Observations

Time (CDT) Temp. Dew Point Humidity Pressure Visibility Wind Dir Wind Speed Gust Speed Precip Events Conditions
12:15 AM 59.9 °F 45.5 °F 59% 30.17 in 10.0 mi East 12.7 mph - N/A   Clear
12:35 AM 58.5 °F 45.0 °F 61% 30.17 in 10.0 mi East 10.4 mph - N/A   Clear
12:55 AM 58.1 °F 44.8 °F 61% 30.17 in 10.0 mi East 11.5 mph - N/A   Clear
1:15 AM 57.2 °F 44.2 °F 62% 30.17 in 10.0 mi East 10.4 mph - N/A   Clear
1:35 AM 56.5 °F 44.1 °F 63% 30.17 in 10.0 mi East 11.5 mph - N/A   Clear
1:55 AM 55.9 °F 43.9 °F 64% 30.17 in 10.0 mi ENE 10.4 mph - N/A   Clear
2:15 AM 55.8 °F 43.9 °F 64% 30.17 in 10.0 mi East 10.4 mph - N/A   Clear
2:35 AM 55.6 °F 43.5 °F 64% 30.17 in 10.0 mi ENE 9.2 mph - N/A   Clear
2:55 AM 55.4 °F 43.3 °F 64% 30.17 in 10.0 mi ENE 10.4 mph - N/A   Clear
3:15 AM 55.0 °F 43.7 °F 66% 30.17 in 10.0 mi ENE 12.7 mph - N/A   Clear
3:35 AM 54.9 °F 43.7 °F 66% 30.17 in 10.0 mi East 11.5 mph - N/A   Clear
3:55 AM 54.7 °F 43.9 °F 67% 30.18 in 10.0 mi ENE 10.4 mph - N/A   Clear
4:15 AM 54.7 °F 44.2 °F 68% 30.17 in 10.0 mi ENE 10.4 mph - N/A   Clear
4:35 AM 54.5 °F 44.1 °F 68% 30.18 in 10.0 mi ENE 10.4 mph - N/A   Clear
4:55 AM 54.5 °F 43.9 °F 67% 30.18 in 10.0 mi ENE 9.2 mph - N/A   Clear
5:15 AM 53.6 °F 43.7 °F 69% 30.18 in 10.0 mi East 6.9 mph - N/A   Clear
5:35 AM 53.1 °F 43.3 °F 70% 30.19 in 10.0 mi East 8.1 mph - N/A   Clear
5:55 AM 53.4 °F 43.3 °F 69% 30.20 in 10.0 mi East 8.1 mph - N/A   Clear
6:15 AM 52.7 °F 43.0 °F 70% 30.22 in 10.0 mi East 3.5 mph - N/A   Clear
6:35 AM 53.1 °F 43.3 °F 70% 30.24 in 10.0 mi Calm Calm - N/A   Clear
6:55 AM 51.4 °F 43.2 °F 73% 30.26 in 10.0 mi WNW 6.9 mph - N/A   Clear
7:15 AM 52.0 °F 43.0 °F 71% 30.25 in 10.0 mi NNW 8.1 mph - N/A   Clear
7:35 AM 52.9 °F 43.2 °F 70% 30.24 in 10.0 mi North 9.2 mph - N/A   Clear
7:55 AM 52.7 °F 43.0 °F 70% 30.23 in 10.0 mi NNE 8.1 mph - N/A   Clear
8:15 AM 53.1 °F 43.5 °F 70% 30.23 in 10.0 mi NE 11.5 mph - N/A Thunderstorm Clear
8:35 AM 54.1 °F 43.9 °F 68% 30.21 in 10.0 mi ENE 15.0 mph - N/A   Clear
8:55 AM 55.9 °F 45.0 °F 67% 30.21 in 10.0 mi East 17.3 mph - N/A   Clear
9:15 AM 55.8 °F 45.1 °F 67% 30.20 in 10.0 mi ESE 18.4 mph 23.0 mph N/A   Clear
9:35 AM 55.9 °F 45.0 °F 67% 30.21 in 10.0 mi ESE 15.0 mph - N/A   Scattered Clouds
9:55 AM 53.2 °F 42.8 °F 68% 30.23 in 10.0 mi Calm Calm - N/A   Clear
10:15 AM 53.8 °F 42.8 °F 66% 30.28 in 10.0 mi West 16.1 mph - N/A   Clear
10:35 AM 54.5 °F 43.7 °F 67% 30.29 in 10.0 mi WSW 8.1 mph - N/A   Scattered Clouds
10:55 AM 59.2 °F 47.3 °F 65% 30.30 in 10.0 mi NW 10.4 mph - N/A   Scattered Clouds
11:15 AM 62.1 °F 47.1 °F 58% 30.30 in 10.0 mi NNW 13.8 mph 18.4 mph N/A   Clear
11:35 AM 62.8 °F 47.1 °F 57% 30.28 in 10.0 mi North 15.0 mph 20.7 mph N/A   Scattered Clouds
11:55 AM 65.7 °F 47.8 °F 53% 30.28 in 10.0 mi NNE 11.5 mph 20.7 mph N/A   Scattered Clouds
12:15 PM 65.8 °F 48.0 °F 53% 30.29 in 10.0 mi NNE 12.7 mph 25.3 mph N/A   Scattered Clouds
12:35 PM 64.8 °F 48.0 °F 55% 30.25 in 10.0 mi NE 21.9 mph 26.5 mph N/A   Scattered Clouds
12:55 PM 67.1 °F 47.7 °F 50% 30.26 in 10.0 mi ENE 16.1 mph - N/A   Scattered Clouds
1:15 PM 67.3 °F 48.2 °F 50% 30.26 in 10.0 mi ENE 12.7 mph 19.6 mph N/A   Mostly Cloudy
1:35 PM 68.5 °F 49.3 °F 50% 30.25 in 10.0 mi East 11.5 mph - N/A   Mostly Cloudy
1:55 PM 69.1 °F 48.7 °F 48% 30.24 in 10.0 mi East 13.8 mph 17.3 mph N/A   Mostly Cloudy
2:15 PM 70.7 °F 48.6 °F 45% 30.22 in 10.0 mi ESE 12.7 mph 17.3 mph N/A   Mostly Cloudy
2:35 PM 72.5 °F 46.9 °F 40% 30.18 in 10.0 mi ESE 20.7 mph 25.3 mph N/A   Scattered Clouds
2:55 PM 74.3 °F 45.1 °F 35% 30.16 in 10.0 mi ESE 15.0 mph 25.3 mph N/A   Clear
3:15 PM 74.7 °F 46.0 °F 36% 30.15 in 10.0 mi ESE 16.1 mph 20.7 mph N/A   Clear
3:35 PM 75.2 °F 46.4 °F 36% 30.15 in 10.0 mi SE 13.8 mph 20.7 mph N/A   Clear
3:55 PM 75.9 °F 46.6 °F 35% 30.14 in 10.0 mi ESE 13.8 mph 19.6 mph N/A   Clear
4:15 PM 76.8 °F 46.0 °F 34% 30.13 in 10.0 mi ESE 16.1 mph 21.9 mph N/A   Clear
4:35 PM 76.6 °F 45.3 °F 33% 30.13 in 10.0 mi SE 10.4 mph 13.8 mph N/A   Clear
4:55 PM 77.5 °F 45.0 °F 31% 30.13 in 10.0 mi SE 10.4 mph 15.0 mph N/A   Clear
5:15 PM 76.8 °F 45.5 °F 33% 30.12 in 10.0 mi ESE 15.0 mph 19.6 mph N/A   Clear
5:35 PM 76.1 °F 46.2 °F 35% 30.12 in 10.0 mi ESE 11.5 mph 19.6 mph N/A   Clear
5:55 PM 75.6 °F 45.5 °F 34% 30.12 in 10.0 mi East 11.5 mph - N/A   Clear
6:15 PM 74.7 °F 46.6 °F 37% 30.11 in 10.0 mi ESE 13.8 mph - N/A   Clear
6:35 PM 73.6 °F 46.8 °F 38% 30.11 in 10.0 mi ESE 11.5 mph - N/A   Clear
6:55 PM 71.8 °F 47.7 °F 42% 30.11 in 10.0 mi ESE 15.0 mph - N/A   Clear
7:15 PM 69.6 °F 47.7 °F 45% 30.12 in 10.0 mi ESE 11.5 mph - N/A   Clear
7:35 PM 68.4 °F 48.4 °F 49% 30.13 in 10.0 mi East 12.7 mph - N/A   Clear
7:55 PM 66.7 °F 49.6 °F 54% 30.13 in 10.0 mi East 12.7 mph - N/A   Clear
8:15 PM 66.2 °F 50.9 °F 58% 30.14 in 10.0 mi East 11.5 mph - N/A   Clear
8:35 PM 64.8 °F 50.9 °F 61% 30.15 in 10.0 mi East 11.5 mph - N/A   Clear
8:55 PM 64.8 °F 51.4 °F 62% 30.15 in 10.0 mi East 10.4 mph - N/A   Clear
9:15 PM 63.9 °F 51.4 °F 64% 30.15 in 10.0 mi East 10.4 mph - N/A   Clear
9:35 PM 63.0 °F 51.6 °F 66% 30.16 in 10.0 mi East 10.4 mph - N/A   Clear
9:55 PM 61.9 °F 51.1 °F 68% 30.16 in 10.0 mi East 9.2 mph - N/A   Clear
10:15 PM 61.7 °F 51.4 °F 69% 30.16 in 10.0 mi East 9.2 mph - N/A   Clear
10:35 PM 60.4 °F 51.3 °F 72% 30.15 in 10.0 mi East 10.4 mph - N/A   Clear
10:55 PM 59.9 °F 51.4 °F 74% 30.15 in 10.0 mi East 10.4 mph - N/A   Clear
11:15 PM 59.7 °F 51.4 °F 74% 30.15 in 10.0 mi East 9.2 mph - N/A   Clear
11:35 PM 58.8 °F 51.1 °F 75% 30.15 in 10.0 mi East 9.2 mph - N/A   Clear
11:55 PM 58.5 °F 50.9 °F 76% 30.15 in 10.0 mi East 8.1 mph - N/A   Clear